Regional Weather Roundup
Issued by NWS Charleston, SC

Current Version | Previous Version | Text Only | Print | Product List | Glossary Off
Versions: 1 2 3 4 5 6 7 8 9 10 11 12 13 14 15 16 17 18 19 20 21 22 23 24 25 26 27 28 29 30 31 32 33 34 35 36 37 38 39 40 41 42 43 44 45 46 47 48 49 50

000
ASUS42 KCHS 110313
RWRCHS

REGIONAL WEATHER ROUNDUP
NATIONAL WEATHER SERVICE CHARLESTON SC
1000 PM EST WED FEB 10 2016

NOTE: "FAIR" INDICATES FEW OR NO CLOUDS BELOW 12,000 FEET WITH NO
SIGNIFICANT WEATHER AND/OR OBSTRUCTIONS TO VISIBILITY.

NOT ALL STATIONS ARE QUALITY CONTROLLED BY THE NATIONAL
WEATHER SERVICE. USE DATA WITH CAUTION...ESPECIALLY
DEWPOINT OBSERVATIONS.

SCZ027-030-031-034>040-042>050-110400-
...SOUTHEAST SOUTH CAROLINA...

CITY           SKY/WX    TMP DP  RH WIND       PRES   REMARKS
N CHARLESTON   CLEAR     33  14  45 W5        30.14R WCI  29
WATERFRONT PRK   N/A     37  18  46 W6        29.99R WCI  32
MOUNT PLEASANT FAIR      36  16  44 SW7       30.15R WCI  30
JOHNS ISLAND   FAIR      36  16  44 SW5       30.15S WCI  32
PINOPOLIS        N/A     37  18  44 W10       30.04S WCI  30
MONCKS CORNER  FAIR      30  10  43 CALM      30.13S
SUMMERVILLE    FAIR      32  19  59 CALM      30.15S
BEAUFORT MCAS  CLEAR     33  18  53 SW8       30.17R WCI  26
BEAUFORT ARPT  FAIR      37  18  44 SW9       30.16S WCI  31
HILTON HEAD IS CLEAR     37  19  48 SW8       30.18S WCI  31
WALTERBORO     CLEAR     34  18  51 SW3       30.15S
ALLENDALE      CLOUDY    34  21  60 CALM      30.14S

...SOUTHERN MIDLANDS AND PEE DEE...

CITY           SKY/WX    TMP DP  RH WIND       PRES   REMARKS
GEORGETOWN     FAIR      30  18  59 SW5       30.14R WCI  25
KINGSTREE      FAIR      32  12  43 W5        30.12R WCI  27
ORANGEBURG     CLEAR     31  14  49 CALM      30.13S
BARNWELL       FAIR      32  16  51 CALM      30.14S
AIKEN          FAIR      30  12  47 W6        30.14S WCI  24
MANNING        FAIR      32  12  43 CALM      30.13S
COLUMBIA       CLEAR     31  10  41 CALM      30.11R
SUMTER         CLEAR     31  11  42 W9        30.08S WCI  23
FLORENCE       CLOUDY    32  13  45 W9        30.09R WCI  24
MYRTLE BEACH   CLEAR     34  12  40 W9        30.12R WCI  26
N MYRTLE BEACH CLEAR     34  15  46 W7        30.10R WCI  28

$$

GAZ063-065-086>088-099>101-113>116-118-119-134>141-150-110400-
...SOUTHEAST GEORGIA...

CITY           SKY/WX    TMP DP  RH WIND       PRES   REMARKS
SAVANNAH ARPT  CLEAR     35  16  45 SW6       30.19R WCI  30
HUNTER AAF     CLEAR     33  19  56 SW5       30.16R WCI  29
FORT STEWART   CLEAR     35  19  53 SW2       30.16S
STATESBORO     PTCLDY    39  11  31 W6        30.15F WCI  35
SYLVANIA       CLOUDY    36  21  54 CALM      30.15F
CLAXTON        FAIR      37  23  56 SW5       30.17F WCI  33

...CSRA...CENTRAL AND FAR SOUTHEAST GEORGIA...

CITY           SKY/WX    TMP DP  RH WIND       PRES   REMARKS
THOMSON        CLOUDY    36  17  46 W3        30.18R
AUGUSTA-BUSH   CLOUDY    32  16  51 W5        30.15R WCI  27
AUGUSTA-DANIEL NOT AVBL
SWAINSBORO     MOCLDY    36  16  44 W5        30.16R WCI  32
VIDALIA        PTCLDY    36  19  51 SW3       30.17S
EASTMAN        FAIR      38  16  41 W7        30.20R WCI  32
HAZLEHURST     FAIR      37  21  53 SW5       30.17F WCI  33
ALMA           CLEAR     31  24  75 CALM      30.20R
WAYCROSS       CLEAR     38  24  56 SW5       30.21R WCI  35
JESUP          FAIR      34  27  75 CALM      30.21R
BAXLEY         FAIR      36  25  64 SW3       30.19S
BRUNSWICK      CLEAR     37  25  60 W8        30.22R WCI  31
SAINT SIMONS   CLEAR     39  23  52 SW8       30.21S WCI  33

$$

SCZ027-028-034-036>038-045-046-048>050-GAZ119-141-110400-
...LAKE AND SUPPLEMENTAL COASTAL OBSERVATIONS...

STATION/POSITION TIME  TEMP    WIND        PRES    WAVE   SWELL
                       AIR SEA DIR/SP/G            HT/PER HT/PER/DIR
                 (UTC) (F)     (DEG/KT/KT) (MB)    (FT/S) (FT/S/D)
WINYAH BAY       NOT AVBL
LAKE MURRAY      0200   36     260/ 13/ 18 1018.3R
ACE BASIN NERRS  0145   36     240/  4     1021.0
FORT PULASKI     0200   39 50                N/A
SAPELO ISLAND    0200   42     240/  8     1023.0S

$$

ANZ835-935-AMZ111-154-330-350-352-354-370-450-454-472-110400-
...C-MAN AND BUOY OBSERVATIONS...

STATION/POSITION TIME  TEMP    WIND        PRES    WAVE   SWELL
                       AIR SEA DIR/SP/G            HT/PER HT/PER/DIR
                 (UTC) (F)     (DEG/KT/KT) (MB)    (FT/S) (FT/S/D)
BUOY 41004       0250   45 64  280/ 29/ 33 1019.2R   8/ 7   2/13
BUOY 41008       0250   45 53  260/ 19/ 23 1022.4R   3/ 4
FOLLY BEACH CMAN 0300   38     250/  7/ 10 1021.1R
CAPERS NEARSHORE 0208   41     270/ 19/ 27 1019.5R
FRIPP NEARSHORE  0200   43     260/ 17/ 21 1020.5R


STATION/POSITION TIME  TEMP    WIND        PRES    WAVE   SWELL
                       AIR SEA DIR/SP/G            HT/PER HT/PER/DIR
                 (UTC) (F)     (DEG/KT/KT) (MB)    (FT/S) (FT/S/D)
5E ST. MARYS GA  0221      55                N/A     2/15   2/ 80/15
FRYING PAN BUOY  0200   43 62  270/ 23/ 29 1018.0R
BUOY 41025       0250   43 71  280/ 23/ 29 1013.6R   6/ 5   3/ 80/14
CAPE LOOKOUT NC  NOT AVBL
BUOY 41002       0250   55 68  280/ 29/ 37   N/A    16/10  11/270/10
BUOY 41010       0220   62 72              1021.4R
ST AUGUSTINE FL  0300   42 56  270/  3/  4 1025.3R


$$



USA.gov is the U.S. government's official web portal to all federal, state and local government web resources and services.